Погода в Евлахе

Погода в Евлахе : погода сейчас, прогноз погоды и архив. Всё, что Вы хотите узнать о погоде в Евлахе!

Поиск расширенной информации на нашем сайте:

Другие новости

Новости СМИ2

Главная страница сайта

Новости сайта

03.07.2017

Напоминаем, что на нашем специализированном сайте Метеоцентр.Азия вы можете получить высокодетализированные автоматические прогнозы погоды по пунктам России, СНГ и мира в авиационном формате (включающие направление и скорость ветра, видимость, явления погоды, количество и форму облачности, нижнюю и верхнюю границу облачности).


Погода в Евлахе - сегодня

Время (UTC), дата Ветер
(°,м/с) 
Видим.   Явления Облачность Т
(°С)
Тd
(°С)
f(%) Тe
(°С)
Pmin
(гПа)
dP
(гПа)
Po
(мм)
O2
(г/м3)
Тmin Tmax R s Состояние
почвы
12 19.02.18 350 (С) 20000 м  в посл. час дождь  10/10 600 м 
[Sc]
+6.6 +3 78 +8  1018.7  -0.5  763  300           
15 19.02.18 тихо ()   20000 м  {дождь}  10/10 600 м 
[Sc]
+5.4 +3 84 +5  1019.5  0.8  763  301           
21 19.02.18 150 (ЮВ) 20000 м    10/10 600 м 
[Sc]
+5.8 +3.4 85 +7  1020.8  0.5  764  301           
00 20.02.18 тихо ()   20000 м    10/10 600 м 
[Sc]
+5.6 +4 89 +6  1020.8  764  301           
03 20.02.18 тихо ()   10 км    10/10 600 м 
[Sc]
+5.5 +4.1 91 +6  1021.5  0.7  765  301           
09 20.02.18 090 (В) 20000 м    10/10 600 м 
[Sc]
+8.5 +2.9 68 +10  1021.1  -1  764  298           
12 20.02.18 тихо ()   20000 м    10/10 600 м 
[Sc]
+8.5 +2.5 66 +9  1019.7  -1.4  763  298           
15 20.02.18 340 (С) 20000 м    10/10 600 м 
[Sc]
+7.7 +4 77 +8  1020  0.3  764  299           
21 20.02.18 тихо ()   10 км    10/10 600 м 
[Sc]
+6.6 +4.5 86 +7  1020.7  0.3  764  300           
00 21.02.18 тихо ()   10 км    10/10 600 м 
[Sc]
+6.3 +4.7 89 +6  1021.1  0.4  764  300           
03 21.02.18 тихо ()   10 км    10/10 600 м 
[Sc]
+6.4 +4.8 89 +6  1021.1  764  300           
06 21.02.18 тихо ()   20000 м    10/10 600 м 
[Sc]
+7.4 +4.6 82 +7  1021.6  0.5  765  299  +6.1         
09 21.02.18 020 (С) 20000 м    10/10 600 м 
[Sc]
+9.2 +2.9 65 +10  1021.2  -0.4  765  298           
12 21.02.18 тихо ()   20000 м    8/8 600 м 
[Sc diur, vesp]
+10.1 +2.1 58 +10  1020.1  -1.1  764  296           
15 21.02.18 тихо ()   20000 м    10/10 600 м 
[Sc]
+8.6 +3.8 72 +9  1020.5  0.4  764  298           
21 21.02.18 тихо ()   20000 м    10/10 600 м 
[Sc]
+7.4 +4.6 82 +7  1020.5  -0.6  764  299           
00 22.02.18 тихо ()   20000 м    10/10 600 м 
[Sc]
+6.5 +4.4 86 +7  1019.6  -0.9  763  300           
03 22.02.18 тихо ()   20000 м    10/10 600 м 
[Sc]
+6.5 +4.2 85 +7  1019.3  -0.3  763  300           
06 22.02.18 тихо ()   10 км    10/10 600 м 
[Sc]
+7.5 +4.5 81 +8  1019.2  -0.1  763  299  +6.5         
09 22.02.18 360 (С) 20000 м    10/0 средняя 
[Ac und]
+10.2 +3.6 64 +10  1017.7  -1.5  762  295           
12 22.02.18 тихо ()   20000 м    10/10 600 м 
[Sc]
+11.1 +3.4 59 +11  1016.3  -1.4  761  294           
15 22.02.18 тихо ()   20000 м    10/0 средняя 
[Ac und]
+9.7 +4 68 +10  1016.3  761  295           
21 22.02.18 тихо ()   20000 м    10/10 600 м 
[Sc]
+8.2 +4.3 76 +8  1016.9  0.2  761  297           
00 23.02.18 тихо ()   20000 м    10/10 600 м 
[Sc]
+7.3 +4.5 82 +7  1016.9  761  298           
03 23.02.18 тихо ()   10 км    10/10 600 м 
[Sc]
+7 +5.5 90 +7  1017.2  0.3  762  298           
Время (UTC), дата Ветер
(°,м/с) 
Видим.   Явления Облачность Т
(°С)
Тd
(°С)
f(%) Тe
(°С)
Pmin
(гПа)
dP
(гПа)
Po
(мм)
O2
(г/м3)
Тmin Tmax R s Состояние
почвы

Для получения пояснительной информации подведите курсор к названию столбца.

ПОГОДА в Евлахе - архив

Всё, что Вы хотите узнать о погоде в Евлахе - удобно и подробно!

Выберите нужную дату (начиная с 1 января 2015* года) и нажмите кнопку "Найти".
Будут отображены архивные сводки погоды по пункту Евлах, начиная с указанной даты.


Отображать данные в формате CSV (для использования в таблицах Excel)


Внимание! Наш архив погоды предназначен исключительно для личного некоммерческого использования в познавательных целях. Если Вам необходимы официальные справки о состоянии погоды (для производственных, юридических, коммерческих и т.п. целей), обращайтесь в органы Росгидромета.

*Примечание: данная дата относится к архиву по метеостанциям СССР (Россия, СНГ, Балтия).
Архив по метеостанциям Зарубежной Европы и Азии (кроме Китая) хранится 10 дней, по другим регионам земного шара (Китай, Африка, Америка, Австралия, Океания) - 1 день.

Евлах - район местоположения метеостанции


Название, широта, долгота, высота метеостанции:
Евлах (АМСГ) 40.6°ш. 47.2°д. 15 м над ур. моря [Азербайджан]

Дополнительная информация

В oтличие oт бoльшинства пoгoдных сайтoв мы публикуем пoдрoбную метеoинфoрмацию в детальнoм прoфессиoнальнoм фoрмате.

Характеристики температуры и влажнoсти вoздуха измеряются на высoте 2 м в тени вдали oт зданий и деревьев.
Скoрoсть ветра измеряется на высoте 10 м (на урoвне рoста челoвека скoрoсть ветра ниже в 1.5-2 раза). Если метеoстанция нахoдится в гoрoде или в лесу, тo скoрoсть ветра занижена на 2-4 м/с пo сравнению с oткрытым местoм. Скoрoсть ветра над акватoриями крупных рек и oзёр, а также на вершинах хoлмoв на 2-5 м/с выше, чем в oбычных услoвиях.
Атмoсфернoе давление в разных тoчках местнoсти мoжет значительнo oтличаться oт давления на метеoстанции, в зависимoсти oт услoвий рельефа (при пoдъёме на 10 м давление пoнижается примернo на 1 мм рт.ст.).